Content
SEND FEEDBACK

Daily
Averages
Monthly
Summary
United States of America

AGAT, GUAM


Home > North America > United States > Guam
Elevation: 110 meters     Latitude: 13 33N     Longitude: 144 50E

WEATHER
 
SELECT A DAY
Number of Records: 209,133;   Date Range: 1/1/95 - 8/28/14
 
SHARE

PRINT THIS DATA

[ ← Previous Day ]
WEATHER ALMANAC - 18 JANUARY, 2013
[ Next Day → ]
[ °F ]   °C
Weather ElementAverageHighLow
Temperature26.8 °C29.4 °C (1:54 pm)24.4 °C (11:54 pm)
Dewpoint21.6 °C23.3 °C (8:54 am)19.4 °C (3:54 pm)
Humidity73.3 %85 % (11:54 pm)55 % (3:54 pm)
Barometer1011.5 hPa1013.2 hPa (8:45 am)1009.8 hPa (2:54 pm)
Wind Speed14 km/h22.2 km/h (9:25 am)
Wind Gust35.2 km/h (1:54 pm)
Weather ElementAverage
Visibility16.1 km
Wind DirectionENE (70 °)

Weather ElementTotal
Precipitation---
Cooling Degree Days8.6 (Base 18.3)
Growing Degree Days16.9 (Base 10)
Averaged from 25 records on 18 January, 2013
WEATHER CONDITIONS BREAKOUT
WIND DIRECTION BREAKOUT
WEATHER BY HOUR - 18 JANUARY, 2013
[ °F ]   °C
Local TimeTemperatureDewpointHumidityBarometerVisibilityWind DirectionWind SpeedGust SpeedPrecipitationEventsConditions
1:54 AM26.1 °C21.7 °C77 %1010.2 hPa16.1 kmENE (70°)11.1 km/hMostly Cloudy
2:54 AM25.6 °C21.1 °C76 %1010.2 hPa16.1 kmEast (80°)9.3 km/hPartly Cloudy
3:54 AM25 °C21.7 °C82 %1010.2 hPa16.1 kmEast (80°)9.3 km/hClear
4:54 AM25.6 °C21.1 °C76 %1010.5 hPa16.1 kmENE (70°)11.1 km/hClear
5:54 AM25 °C21.1 °C79 %1010.5 hPa16.1 kmENE (60°)13 km/hClear
6:54 AM25 °C21.1 °C79 %1011.2 hPa16.1 kmENE (70°)11.1 km/hClear
7:54 AM26.1 °C21.7 °C77 %1011.9 hPa16.1 kmEast (80°)9.3 km/hClear
8:45 AM27 °C23 °C79 %1013.2 hPa16.1 kmEast (80°)18.5 km/hMostly Cloudy
8:54 AM26.7 °C23.3 °C81 %1012.5 hPa16.1 kmEast (100°)13 km/hMostly Cloudy
9:25 AM27 °C23 °C79 %1013.2 hPa16.1 kmENE (60°)22.2 km/h0 mmMostly Cloudy
9:54 AM27.8 °C22.8 °C74 %1012.5 hPa16.1 kmEast (90°)18.5 km/h0 mmMostly Cloudy
10:54 AM28.9 °C21.1 °C63 %1011.9 hPa16.1 kmEast (80°)18.5 km/hPartly Cloudy
11:54 AM28.9 °C21.7 °C65 %1011.5 hPa16.1 kmEast (80°)22.2 km/hPartly Cloudy
12:54 PM28.9 °C21.7 °C65 %1010.8 hPa16.1 kmESE (110°)18.5 km/hPartly Cloudy
1:54 PM29.4 °C20 °C57 %1010.2 hPa16.1 kmEast (90°)20.4 km/h35.2 km/hPartly Cloudy
2:54 PM29.4 °C20.6 °C59 %1009.8 hPa16.1 kmEast (80°)20.4 km/hClear
3:54 PM29.4 °C19.4 °C55 %1009.8 hPa16.1 kmENE (60°)20.4 km/hPartly Cloudy
4:54 PM28.9 °C20.6 °C61 %1010.8 hPa16.1 kmENE (70°)14.8 km/hPartly Cloudy
5:54 PM27.8 °C21.1 °C67 %1011.2 hPa16.1 kmENE (60°)16.7 km/hPartly Cloudy
6:54 PM26.7 °C21.7 °C74 %1011.9 hPa16.1 kmNE (50°)9.3 km/hPartly Cloudy
7:54 PM26.1 °C21.7 °C77 %1012.9 hPa16.1 kmNE (50°)7.4 km/hPartly Cloudy
8:54 PM25 °C21.7 °C82 %1013.2 hPa16.1 kmNE (50°)9.3 km/hPartly Cloudy
9:54 PM25 °C21.7 °C82 %1013.2 hPa16.1 kmNE (40°)7.4 km/hPartly Cloudy
10:54 PM25 °C21.7 °C82 %1012.9 hPa16.1 kmNE (50°)7.4 km/hScattered Clouds
11:54 PM24.4 °C21.7 °C85 %1012.9 hPa16.1 kmNE (40°)9.3 km/hPartly Cloudy
Hourly data recorded from PGUM, located 0 kilometers away from Agat, Guam







STORIES FROM OUR PARTNERS